Вернуться в каталог

STARLINK-32629

АктивенСвязьVLEO
NORAD 62150·PAYLOAD·🇺🇸 United States

Запущен Nov 30, 2024 с Cape Canaveral Space Force Station

Loading…

Ближайшие Пролёты (ближайшие 24 часа)

TLE

СвежийSource: CelesTrak SupGP

Эпоха: Sep 14, 2026, 22:50 UTC

1 62150C 24224M   26257.95187500 -.00073886  00000+0 -26758-2 0  2575
2 62150  42.9991 168.8575 0001296 264.2765 316.4052 15.27619245    14

Отслеживайте STARLINK-32629 в реальном времени с AllMySat

Download on the App Store